Columbia, SC

4:54 AM EDT on July 27, 2017 (GMT -0400)
Columbia Metro

Weather History for KCAE - March, 2013

Change the Weather History Date:

Monday, March 11, 2013

  Actual Average Record
Temperature  
Mean Temperature 61 °F 54 °F  
Max Temperature 75 °F 67 °F 88 °F (1990)
Min Temperature 46 °F 42 °F 25 °F (1969)
Degree Days  
Heating Degree Days 4 11  
Month to date heating degree days 189 136  
Since 1 July heating degree days 1909 2235  
Cooling Degree Days 0 0  
Month to date cooling degree days 0 0  
Year to date cooling degree days 25 4  
Growing Degree Days 10 (Base 50)    
Moisture  
Dew Point 44 °F    
Average Humidity 58    
Maximum Humidity 78    
Minimum Humidity 38    
Precipitation  
Precipitation T in 0.12 in 2.04 in (1962)
Month to date precipitation 0.02 1.41  
Year to date precipitation 6.74 8.60  
Sea Level Pressure  
Sea Level Pressure 30.04 in    
Wind  
Wind Speed 9 mph (ESE)    
Max Wind Speed 23 mph    
Max Gust Speed 30 mph    
Visibility 10 miles    
Events      
T = Trace of Precipitation, MM = Missing Value Source: NWS Daily Summary

Daily Weather History Graph

Daily Weather History Graph

Search for Another Location

Airport or City:

Trip Planner

Search our weather history database for the weather conditions in past years. The results will help you decide how hot, cold, wet, or windy it might be!

Date:

Astronomy

Mar. 11, 2013 Rise Set
Actual Time 7:39 AM EDT 7:29 PM EDT
Civil Twilight 7:15 AM EDT 7:54 PM EDT
Nautical Twilight 6:46 AM EDT 8:23 PM EDT
Astronomical Twilight 6:17 AM EDT 8:52 PM EDT
Moon 7:14 AM EDT (3/11) 7:37 PM EDT (3/11)
Length of Visible Light 12h 39m
Length of Day
11h 49m
Waning Crescent, 0% of the Moon is Illuminated
Mar 11
Waning Crescent
Mar 11
New
Mar 19
First Quarter
Mar 27
Full
Apr 3
Last Quarter

Hourly Weather History & Observations

Time (EDT) Temp. Windchill Dew Point Humidity Pressure Visibility Wind Dir Wind Speed Gust Speed Precip Events Conditions
12:56 AM 53.1 °F - 41.0 °F 64% 30.20 in 10.0 mi East 3.5 mph - N/A   Clear
1:56 AM 52.0 °F - 39.0 °F 61% 30.18 in 10.0 mi Calm Calm - N/A   Clear
2:56 AM 50.0 °F - 37.9 °F 63% 30.15 in 10.0 mi ENE 3.5 mph - N/A   Clear
3:56 AM 48.9 °F - 34.0 °F 56% 30.14 in 10.0 mi ENE 4.6 mph - N/A   Clear
4:56 AM 48.0 °F - 30.0 °F 50% 30.12 in 10.0 mi East 3.5 mph - N/A   Clear
5:56 AM 46.9 °F - 28.9 °F 50% 30.12 in 10.0 mi Calm Calm - N/A   Clear
6:56 AM 46.9 °F - 30.9 °F 54% 30.12 in 10.0 mi East 3.5 mph - N/A   Clear
7:56 AM 46.0 °F 44.8 °F 35.1 °F 66% 30.12 in 10.0 mi ENE 3.5 mph - N/A   Scattered Clouds
8:56 AM 48.0 °F - 37.9 °F 68% 30.12 in 10.0 mi ESE 3.5 mph - N/A   Mostly Cloudy
9:13 AM 48.2 °F - 39.2 °F 71% 30.11 in 10.0 mi East 4.6 mph - N/A   Mostly Cloudy
9:56 AM 52.0 °F - 43.0 °F 71% 30.12 in 10.0 mi Calm Calm - N/A   Mostly Cloudy
10:01 AM 51.8 °F - 42.8 °F 71% 30.12 in 10.0 mi Calm Calm - N/A   Overcast
10:56 AM 59.0 °F - 48.0 °F 67% 30.11 in 10.0 mi East 3.5 mph - N/A   Mostly Cloudy
11:56 AM 66.0 °F - 50.0 °F 56% 30.08 in 10.0 mi Variable 4.6 mph - N/A   Mostly Cloudy
12:56 PM 71.1 °F - 48.0 °F 44% 30.05 in 10.0 mi South 20.7 mph 29.9 mph N/A   Mostly Cloudy
1:56 PM 73.0 °F - 48.9 °F 42% 30.01 in 10.0 mi SSE 15.0 mph 20.7 mph N/A   Mostly Cloudy
2:56 PM 73.0 °F - 46.9 °F 39% 29.98 in 10.0 mi South 17.3 mph 23.0 mph N/A   Overcast
3:56 PM 73.0 °F - 48.0 °F 41% 29.92 in 10.0 mi SSE 18.4 mph 26.5 mph N/A   Mostly Cloudy
4:56 PM 72.0 °F - 48.0 °F 43% 29.93 in 10.0 mi South 20.7 mph 26.5 mph N/A   Mostly Cloudy
5:56 PM 70.0 °F - 50.0 °F 49% 29.90 in 10.0 mi SSE 17.3 mph - N/A   Overcast
6:56 PM 69.1 °F - 50.0 °F 51% 29.88 in 10.0 mi SSE 17.3 mph 25.3 mph N/A   Overcast
7:56 PM 68.0 °F - 51.1 °F 55% 29.89 in 10.0 mi SSE 12.7 mph 23.0 mph N/A   Overcast
8:56 PM 66.9 °F - 51.1 °F 57% 29.91 in 10.0 mi SSE 11.5 mph - N/A   Overcast
9:56 PM 66.0 °F - 52.0 °F 60% 29.89 in 10.0 mi SE 12.7 mph - N/A   Overcast
10:56 PM 64.0 °F - 55.0 °F 73% 29.87 in 10.0 mi ESE 10.4 mph - 0.00 in   Overcast
11:56 PM 62.1 °F - 55.9 °F 80% 29.87 in 10.0 mi SE 8.1 mph - 0.00 in   Overcast